Location: Zagreb
(45.8000°N, 16.0000°E)
Time: 14:44:08
(UTC+02:00)

Vanguard 1 - Pass Details

Date: 12 August 2022
Orbit: 649 x 3832 km, 34.2° (Epoch: 25 September)

Event Time Altitude Azimuth Distance (km) Brightness Sun altitude
Rises 11:07:08 0° 281° (W) 7,669 14.3 51.0°
Reaches altitude 10° 11:12:55 10° 273° (W) 6,838 14.2 51.7°
Maximum altitude 11:31:51 34° 220° (SW) 5,005 14.2 53.9°
Drops below altitude 10° 11:47:56 10° 164° (SSE) 5,771 14.7 55.5°
Sets 11:52:21 0° 155° (SSE) 6,385 14.7 55.9°
